Weather History for Kars, Turkey

Change the Weather History Date:

Saturday, April 12, 2014

  Actual Average Record
Temperature  
Mean Temperature 42 °F -  
Max Temperature 59 °F 56 °F - ()
Min Temperature 26 °F 35 °F - ()
Degree Days  
Heating Degree Days 22    
Moisture  
Dew Point 28 °F    
Average Humidity 55    
Maximum Humidity 100    
Minimum Humidity 11    
Precipitation  
Precipitation 0.00 in 0.07 in - ()
Sea Level Pressure  
Sea Level Pressure 30.19 in    
Wind  
Wind Speed 5 mph ()    
Max Wind Speed 15 mph    
Max Gust Speed -    
Visibility 6.1 miles    
Events      
T = Trace of Precipitation, MM = Missing Value Source: Averaged Metar Reports

Daily Weather History Graph

Daily Weather History Graph

Search for Another Location

Airport:

Trip Planner

Search our weather history database for the weather conditions in past years. The results will help you decide how hot, cold, wet, or windy it might be!

Date:

Astronomy

Apr. 12, 2014 Rise Set
Actual Time 5:34 AM EEST 6:43 PM EEST
Civil Twilight 5:06 AM EEST 7:11 PM EEST
Nautical Twilight 4:32 AM EEST 7:45 PM EEST
Astronomical Twilight 3:57 AM EEST 8:20 PM EEST
Moon 3:59 PM EEST (4/12) 3:50 AM EEST (4/12)
Length of Visible Light 14h 05m
Length of Day
13h 09m
Waxing Gibbous, 91% of the Moon is Illuminated
Apr 12
Waxing Gibbous
Apr 15
Full
Apr 22
Last Quarter
Apr 29
New
May 7
First Quarter

Hourly Weather History & Observations

Time (EEST) Temp. Windchill Dew Point Humidity Pressure Visibility Wind Dir Wind Speed Gust Speed Precip Events Conditions
12:00 AM 36 °F - 34 °F 91%  in 6 mi SE 1.2 mph - -   Mostly Cloudy
12:50 AM 33.8 °F - 33.8 °F 100% 30.21 in 6.2 mi ESE 2.3 mph - N/A   Mostly Cloudy
1:50 AM 32.0 °F 28.7 °F 32.0 °F 100% 30.21 in 6.2 mi SE 3.5 mph - N/A   Mostly Cloudy
3:00 AM 31 °F - 31 °F 99%  in 6 mi WNW 4.6 mph - -   Mostly Cloudy
3:50 AM 30.2 °F - 30.2 °F 100% 30.21 in 6.2 mi Calm Calm - N/A   Mostly Cloudy
4:50 AM 26.6 °F - 26.6 °F 100% 30.21 in 6.2 mi Calm Calm - N/A   Mostly Cloudy
5:50 AM - - - N/A% 30.21 in 6.2 mi East 3.5 mph - N/A   Scattered Clouds
6:00 AM - - - %  in 6 mi East 3.5 mph - -   Partly Cloudy
6:50 AM 30.2 °F 24.3 °F 30.2 °F 100% 30.24 in 6.2 mi WNW 5.8 mph - N/A   Scattered Clouds
7:50 AM 37.4 °F - 33.8 °F 87% 30.24 in 6.2 mi Calm Calm - N/A   Partly Cloudy
8:50 AM 44.6 °F - 33.8 °F 66% 30.24 in 6.2 mi Variable 1.2 mph - N/A   Scattered Clouds
9:00 AM 45 °F - 33 °F 52%  in 6 mi West 1.2 mph - -   Partly Cloudy
9:50 AM 50.0 °F - 30.2 °F 47% 30.24 in 6.2 mi WSW 3.5 mph - N/A   Mostly Cloudy
10:50 AM 51.8 °F - 26.6 °F 38% 30.21 in 6.2 mi SSW 12.7 mph - N/A   Mostly Cloudy
11:50 AM 53.6 °F - 26.6 °F 35% 30.21 in 6.2 mi SSW 13.8 mph - N/A   Mostly Cloudy
12:00 PM 54 °F - 27 °F 22%  in 6 mi South 13.8 mph - -   Partly Cloudy
12:50 PM 55.4 °F - 26.6 °F 33% 30.18 in 6.2 mi SW 15.0 mph - N/A   Mostly Cloudy
1:50 PM 57.2 °F - 24.8 °F 29% 30.18 in 6.2 mi SSW 11.5 mph - N/A   Mostly Cloudy
2:50 PM 57.2 °F - 17.6 °F 21% 30.15 in 6.2 mi West 10.4 mph - N/A   Mostly Cloudy
3:00 PM 58 °F - 18 °F 11%  in 6 mi West 10.4 mph - -   Partly Cloudy
3:50 PM 57.2 °F - 26.6 °F 31% 30.15 in 6.2 mi SSW 15.0 mph - N/A   Mostly Cloudy
4:50 PM 57.2 °F - 26.6 °F 31% 30.12 in 6.2 mi South 12.7 mph - N/A   Mostly Cloudy
5:50 PM 55.4 °F - 26.6 °F 33% 30.12 in 6.2 mi SW 9.2 mph - N/A   Mostly Cloudy
6:00 PM 55 °F - 26 °F 21%  in 6 mi SW 9.2 mph - -   Mostly Cloudy
6:50 PM 48.2 °F - 28.4 °F 46% 30.15 in 6.2 mi SSE 9.2 mph - N/A   Scattered Clouds
7:50 PM 46.4 °F 40.7 °F 26.6 °F 46% 30.15 in 6.2 mi South 12.7 mph - N/A   Scattered Clouds
8:50 PM 46.4 °F 40.7 °F 24.8 °F 43% 30.18 in 6.2 mi South 12.7 mph - N/A   Scattered Clouds
9:00 PM 46 °F - 26 °F 32%  in 6 mi South 12.7 mph - -   Partly Cloudy
9:50 PM 44.6 °F 42.2 °F 24.8 °F 46% 30.18 in 6.2 mi West 4.6 mph - N/A   Scattered Clouds
10:50 PM 37.4 °F - 24.8 °F 60% 30.18 in 6.2 mi Calm Calm - N/A   Scattered Clouds
11:50 PM 37.4 °F - 26.6 °F 65% 30.18 in 6.2 mi Calm Calm - N/A   Scattered Clouds